Location: Chipmunk Meadow
(41.1540°N, 122.8814°W)
Time: 05:13:53
(UTC+00:00)

Cosmos 1666 Rocket - Pass Details

Date: 13 April 2024
Orbit: 597 x 627 km, 82.5° (Epoch: 13 May)

Event Time Altitude Azimuth Distance (km) Brightness Sun altitude
Rises 12:31:12 0° 344° (NNW) 2,929 7.1 -12.1°
Reaches altitude 10° 12:33:32 10° 337° (NNW) 2,015 6.2 -11.7°
Maximum altitude 12:37:43 40° 268° (W) 923 4.0 -11.0°
Drops below altitude 10° 12:41:51 10° 199° (SSW) 1,989 5.8 -10.2°
Sets 12:44:09 0° 192° (SSW) 2,886 6.7 -9.8°
